Flag Weather past 2 weeks in Mahón, Menorca, Spain

Now
64 °F

Passing clouds.


Feels Like: 64 °F
Forecast: 63 / 64 °F
Wind: 9 mph from South

Location: Menorca / Mahon

Current Time: Nov 28, 2014 at 5:37:00 AM

Latest Report: Nov 28, 2014 at 4:00 AM


Visibility: 6 mi

Pressure: 29.47 "Hg

Humidity: 94%

Dew point: 62 °F

Location of MahónLocation

Historic Weather in Mahón — Graph

°F

Mahón temperature yesterday

Maximum temperature yesterday: 68 °F (at 12:00 PM)
Minimum temperature yesterday: 62 °F (at 5:00 AM)
Average temperature yesterday: 64 °F

Past Weeks' High & Low Weather Summary

 TemperatureHumidityPressure
High72 °F (Nov 23, 12:00 PM)98% (Nov 22, 12:00 AM)30.17 "Hg (Nov 22, 12:00 AM)
Low54 °F (Nov 19, 7:00 AM)49% (Nov 18, 11:00 AM)29.47 "Hg (Nov 28, 3:00 AM)
Average64 °F80%29.94 "Hg
* Reported Nov 13 4:00 AM — Nov 28 4:00 AM, Mahón, Weather by CustomWeather, © 2014

Note: Actual official high and low records may vary slightly from our data, if they occured in-between our weather recording intervals... More about our weather records

Advertising

Mahón weather history for previous 24 hours

 ConditionsComfort  
Time TempWeatherWind HumidityBarometerVisibility
4:00 AM
Nov 28
64 °FPassing clouds.9 mph94%29.47 "Hg6 mi
3:00 AM65 °FMild.12 mph93%29.47 "HgN/A
2:00 AM65 °FMild.14 mph94%29.50 "HgN/A
1:00 AM64 °FOvercast.10 mph94%29.54 "Hg7 mi
12:00 AM64 °FMild.10 mph94%29.57 "HgN/A
11:00 PM
Nov 27
64 °FMild.10 mph94%29.59 "HgN/A
10:00 PM64 °FLow clouds.12 mph95%29.60 "Hg6 mi
9:00 PM64 °FMild.15 mph94%29.61 "HgN/A
8:00 PM64 °FMild.12 mph95%29.63 "HgN/A
7:00 PM64 °FPassing clouds.12 mph95%29.64 "Hg6 mi
6:00 PM64 °FMild.10 mph94%29.65 "HgN/A
5:00 PM65 °FMild.12 mph90%29.67 "HgN/A
4:00 PM66 °FOvercast.14 mph86%29.68 "Hg14 mi
3:00 PM67 °FMild.15 mph81%29.69 "HgN/A
2:00 PM67 °FOvercast.16 mph79%29.72 "Hg14 mi
1:00 PM67 °FOvercast.14 mph78%29.75 "Hg15 mi
12:00 PM68 °FMild.15 mph76%29.77 "HgN/A
11:00 AM66 °FMild.12 mph81%29.81 "HgN/A
10:00 AM64 °FOvercast.9 mph80%29.81 "Hg15 mi
9:00 AM63 °FMild.9 mph89%29.81 "HgN/A
8:00 AM62 °FOvercast.7 mph88%29.81 "Hg10 mi
7:00 AM62 °FOvercast.8 mph87%29.81 "Hg7 mi
6:00 AM62 °FCool.6 mph87%29.81 "HgN/A
5:00 AM62 °FCool.6 mph88%29.82 "HgN/A
Weather by CustomWeather, © 2014

See weather overviewHow to use our weather pages